Location: Fontevrault
(47.1823°N, 0.0493°E)
Time: 03:37:02
(UTC+00:00)

Uosat 12 SS-18 rocket - Pass Details

Date: 23 October 2021
Orbit: 579 x 1405 km, 64.6° (Epoch: 01 December)

Event Time Altitude Azimuth Distance (km) Brightness Sun altitude
Rises 20:04:15 0° 302° (WNW) 3,473 8.9 -32.1°
Reaches altitude 10° 20:07:31 10° 322° (NW) 2,692 7.9 -32.6°
Maximum altitude 20:11:44 18° 3° (N) 2,357 7.1 -33.3°
Enters shadow 20:13:22 17° 20° (NNE) 2,498 7.1 -33.5°
